Tracking 28790 objects as of 19-Apr-2024
HD Live streaming from Space Station
objects crossing your sky now

COSMOS 530

Track COSMOS 530 now!
10-day predictions
COSMOS 530 is classified as:


NORAD ID: 6265
Int'l Code: 1972-087C
Perigee: 1,339.2 km
Apogee: 1,474.5 km
Inclination: 74.0 °
Period: 113.8 minutes
Semi major axis: 7777 km
RCS: 0.7215 m2 (medium)
Launch date: November 1, 1972
Source: Commonwealth of Independent States (former USSR) (CIS)
Launch site: PLESETSK MISSILE AND SPACE COMPLEX (PKMTR)
Your satellite tracking list
Your tracking list is empty




NASA's NSSDC Master Catalog

Two Line Element Set (TLE):
1  6265U 72087C   24109.82857800  .00000034  00000-0  26485-3 0  9992
2  6265  74.0335 299.2940 0086955 163.1506 306.4837 12.65653423377884
Source of the keplerian elements: AFSPC